Hourly Data Report for October 10, 2013

All times are specified in Local Standard Time (LST). Add 1 hour to adjust for Daylight Saving Time where and when it is observed.

ARVIAT A
NUNAVUT

61°05'38.000" N
94°04'18.000" W
10.40 m
2300427
71174
YEK

Download Data

Hourly Data (October 2013)
Hourly Data Report for October 10, 2013
Temp Definition
°C
Dew Point Temp Definition
°C
Rel Hum Definition
%
Wind Dir Definition
10's deg

Wind Spd Definition
km/h
Visibility Definition
km
Stn Press Definition
kPa
Hmdx Definition


Wind Chill Definition


Weather Definition


TIME
00:00 Legend Double Dagger 2.0 -0.1 86 17 33 16.1 101.58     LegendNANA
01:00 Legend Double Dagger 2.0 -0.3 85 17 33 16.1 101.54     LegendNANA
02:00 Legend Double Dagger 2.2 0.4 88 17 28 16.1 101.50     LegendNANA
03:00 Legend Double Dagger 2.5 0.2 85 17 33 16.1 101.47     LegendNANA
04:00 Legend Double Dagger 2.7 0.8 87 17 30 16.1 101.44     LegendNANA
05:00 Legend Double Dagger 2.8 1.6 92 16 33 16.1 101.43     LegendNANA
06:00 Legend Double Dagger 2.9 2.3 96 16 32 11.3 101.41     LegendNANA
07:00 Legend Double Dagger 3.1 2.7 97 15 39 16.1 101.30     LegendNANA
08:00 Legend Double Dagger 3.3 3.0 98 15 33 4.8 101.27     LegendNANA
09:00 Legend Double Dagger 3.3 3.2 99 16 32 16.1 101.22     LegendNANA
10:00 Legend Double Dagger 3.5 3.2 98 17 32 16.1 101.18     LegendNANA
11:00 Legend Double Dagger 3.9 3.3 96 18 30 16.1 101.16     LegendNANA
12:00 Legend Double Dagger 4.0 3.4 96 18 30 16.1 101.15     LegendNANA
13:00 Legend Double Dagger 4.1 3.5 96 18 32 16.1 101.12     LegendNANA
14:00 Legend Double Dagger 4.2 3.5 95 18 32 16.1 101.10     LegendNANA
15:00 Legend Double Dagger 4.1 3.8 98 18 32 14.5 101.08     LegendNANA
16:00 Legend Double Dagger 4.1 4.0 99 18 30 12.9 101.02     LegendNANA
17:00 Legend Double Dagger 3.7 3.6 99 17 35 4.8 100.97     LegendNANA
18:00 Legend Double Dagger 3.2 3.2 100 18 32 0.6 100.98     LegendNANA
19:00 Legend Double Dagger 3.6 3.6 100 17 32 1.6 100.95     LegendNANA
20:00 Legend Double Dagger 3.9 3.7 99 16 35 16.1 100.93     LegendNANA
21:00 Legend Double Dagger 4.3 3.9 97 17 35 16.1 100.89     LegendNANA
22:00 Legend Double Dagger 4.8 4.0 94 17 37 16.1 100.91     LegendNANA
23:00 Legend Double Dagger 4.8 4.0 95 17 35 16.1 100.91     LegendNANA

Notes on Data Quality.

Legend

  • E = Estimated
  • M = Missing
  • NA = Not Available
  • ‡ = Partner data that is not subject to review by the National Climate Archives
Date modified: